[[{"header":{"parameterUnit":"m.s-1","parameterCategory":1,"la1":30.2991,"la2":30.254,"lo1":-89.0895,"lo2":-89.0444,"dy":0.0017,"dx":0.0017,"nx":28,"ny":28,"refTime":"2025-03-28T09:00:00:Z","depth":0,"parameterNumber":2,"parameterNumberName":"U-component_of_WINDS"},"data":[0,0,0,0,0,0,0,0,0,0,0,0,0,0,0,0,0,0,0,0,0,0,0,0,0,0,0,0,0,0,0,0,0,0,0,0,0,0,0,0,0,0,0,0,0,0,0,0,0,0,0,0,0,0,0,0,0,0,-7.4292,-7.4295,0,-7.4565,-7.4568,-7.4571,-7.4631,-7.463,-7.4628,-7.4626,-7.4901,-7.491,-7.4919,0,0,0,0,0,0,0,0,0,0,0,0,0,-7.382,-7.3828,-7.4291,-7.4295,-7.4298,-7.4564,-7.4568,-7.4572,-7.4632,-7.4629,-7.4627,-7.4625,-7.4898,-7.4909,-7.492,0,0,0,0,0,0,0,0,0,0,0,0,0,-7.4052,-7.3831,-7.4291,-7.4361,-7.437,-7.4563,-7.4568,-7.4573,-7.4632,-7.4629,-7.4626,-7.4624,-7.4895,-7.4908,-7.4921,-7.5064,0,0,-7.4963,-7.4969,0,0,0,0,0,0,0,0,-7.4039,-7.4069,-7.4347,-7.4356,-7.4367,-7.4561,-7.4503,-7.4737,-7.4633,-7.4532,-7.4626,-7.4622,-7.479,-7.4812,-7.487,-7.5077,-7.5089,-7.4965,-7.4973,-7.4979,-7.4983,0,0,0,0,0,0,0,-7.4023,-7.4058,-7.4399,-7.4351,-7.4363,-7.4377,-7.4407,-7.4547,-7.4674,-7.4541,-7.4546,-7.4578,-7.4795,-7.4856,-7.4877,-7.5093,-7.4964,-7.4976,-7.4985,-7.499,-7.5431,-7.5434,0,0,0,0,0,0,-7.3995,-7.4044,-7.4391,-7.4408,-7.4192,-7.4388,-7.4421,-7.4501,-7.4673,-7.4696,-7.458,-7.458,-7.4834,-7.4861,-7.4886,-7.5064,-7.4979,-7.4991,-7.4999,-7.5427,-7.5432,-7.5435,0,0,0,0,0,0,-7.3984,-7.4025,-7.438,-7.4227,-7.4274,-7.4399,-7.4489,-7.4508,-7.457,-7.4702,-7.4725,-7.4619,-7.4833,-7.4867,-7.502,-7.5074,-7.4998,-7.501,-7.5423,-7.5429,-7.5433,-7.5419,0,0,0,0,0,0,-7.3971,-7.4021,-7.4077,-7.4228,-7.4282,-7.4509,-7.4492,-7.4516,-7.4594,-7.4596,-7.4745,-7.4767,-7.4833,-7.4999,-7.5033,-7.5091,-7.5021,-7.5419,-7.5426,-7.5432,-7.5415,-7.5423,-7.543,0,0,0,0,0,-7.3954,-7.4061,-7.4079,-7.4121,-7.4354,-7.4512,-7.4542,-7.4617,-7.4598,-7.4655,-7.474,-7.4762,-7.5064,-7.5014,-7.5053,-7.5116,-7.5416,-7.5424,-7.5431,-7.5412,-7.5422,-7.543,0,0,0,0,0,0,-7.3911,-7.4082,-7.4104,-7.4264,-7.4373,-7.4522,-7.4595,-7.4625,-7.4741,-7.4738,-7.4825,-7.4859,-7.5005,-7.5077,-7.5019,-7.5263,-7.5239,-7.5255,-7.521,-7.5221,-7.5228,-7.5206,-7.5032,0,0,0,0,0,-7.392,-7.4035,-7.4179,-7.4306,-7.436,-7.4468,-7.454,-7.4589,-7.4704,-7.475,-7.4847,-7.4957,-7.5077,-7.5154,-7.5271,-7.5428,-7.546,-7.549,-7.5498,-7.5503,-7.5515,-7.5602,-7.5616,-7.5461,-7.5461,-7.5461,0,0,-7.394,-7.4048,-7.4115,-7.43,-7.439,-7.4506,-7.4506,-7.4629,-7.4715,-7.4769,-7.4918,-7.4993,-7.5123,-7.5277,-7.535,-7.5341,-7.5566,-7.5513,-7.5517,-7.5525,-7.5611,-7.5626,-7.5639,-7.5466,-7.5465,-7.5465,0,0,-7.4035,-7.413,-7.4245,-7.4337,-7.4474,-7.4546,-7.4574,-7.4719,-7.4771,-7.4924,-7.4966,-7.507,-7.5275,-7.5365,-7.5437,-7.557,-7.5594,-7.5606,-7.5643,-7.5727,-7.5739,-7.575,-7.5795,-7.581,-7.5618,-7.5618,-7.5618,0,-7.4042,-7.4219,-7.4301,-7.4422,-7.4501,-7.4558,-7.4675,-7.476,-7.4927,-7.4981,-7.4969,-7.5228,-7.5319,-7.5495,-7.5527,-7.5585,-7.5618,-7.5587,-7.5731,-7.5743,-7.5754,-7.5798,-7.5815,-7.5618,-7.5618,-7.5618,-7.5618,0,-7.422,-7.4342,-7.4419,-7.4582,-7.4671,-7.4789,-7.4888,-7.4968,-7.501,-7.5083,-7.5237,-7.535,-7.549,-7.5537,-7.5578,-7.5719,-7.5709,-7.5714,-7.5689,-7.5768,-7.581,-7.5828,-7.5618,-7.5618,-7.5618,-7.5618,0,0,-7.4291,-7.45,-7.4526,-7.46,-7.4758,-7.4853,-7.4975,-7.5114,-7.518,-7.5296,-7.5398,-7.5571,-7.5577,-7.5659,-7.5712,-7.5786,-7.5881,-7.5782,-7.5786,-7.5794,-7.6041,-7.6034,-7.6053,-7.5901,-7.5904,-7.5907,-7.603,0,-7.4403,-7.4622,-7.47,-7.488,-7.4993,-7.505,-7.5156,-7.5263,-7.5336,-7.5442,-7.5522,-7.5642,-7.5641,-7.5691,-7.5768,-7.5853,-7.5932,-7.5846,-7.5994,-7.5999,-7.5956,-7.6075,-7.6069,-7.6179,-7.6047,-7.605,-7.6052,0,-7.4562,-7.468,-7.4871,-7.5015,-7.5065,-7.5159,-7.5293,-7.5395,-7.5518,-7.5565,-7.5659,-7.5707,-7.5836,-7.5808,-7.5985,-7.5925,-7.5991,-7.6043,-7.6049,-7.6062,-7.6027,-7.6089,-7.6216,-7.6231,-7.608,-7.6077,-7.6075,0,-7.4591,-7.4799,-7.494,-7.5002,-7.5174,-7.5238,-7.5312,-7.5433,-7.5512,-7.563,-7.5682,-7.5813,-7.5883,-7.5983,-7.6065,-7.6038,-7.6235,-7.6214,-7.6276,-7.6274,-7.6311,-7.6307,-7.6447,-7.636,-7.6359,-7.6359,-7.6359,0,-7.4705,-7.4819,-7.4955,-7.5041,-7.5171,-7.5261,-7.5386,-7.5464,-7.5572,-7.5673,-7.5732,-7.5826,-7.5931,-7.6039,-7.6104,-7.624,-7.6272,-7.6313,-7.6328,-7.6306,-7.63,-7.6347,-7.634,-7.6363,-7.6362,-7.6362,-7.6361,0,-7.4758,-7.4854,-7.5011,-7.5162,-7.5203,-7.5291,-7.542,-7.5506,-7.5582,-7.571,-7.5746,-7.5865,-7.5995,-7.6088,-7.6256,-7.63,-7.6445,-7.6462,-7.6403,-7.641,-7.6466,-7.6458,-7.6638,-7.6665,-7.6562,-7.6563,-7.6564,0,-7.4822,-7.4912,-7.5073,-7.5146,-7.5221,-7.5338,-7.5419,-7.5512,-7.5594,-7.5742,-7.581,-7.5945,-7.6056,-7.6262,-7.6362,-7.6491,-7.6509,-7.6564,-7.6528,-7.6503,-7.6507,-7.6499,-7.6507,-7.6567,-7.6568,-7.6568,-7.6569,0,-7.4926,-7.497,-7.5085,-7.5219,-7.5315,-7.5423,-7.5533,-7.5589,-7.5701,-7.5791,-7.5925,-7.6013,-7.6185,-7.6317,-7.6456,-7.6532,-7.6568,-7.658,-7.6601,-7.6576,-7.6538,-7.6557,-7.6413,-7.6574,-7.6574,-7.6573,-7.6573,-7.6573,-7.4985,-7.5067,-7.5193,-7.532,-7.5413,-7.5515,-7.5602,-7.5691,-7.5805,-7.5953,-7.6001,-7.614,-7.6262,-7.6453,-7.6531,-7.664,-7.6637,-7.6668,-7.6675,-7.668,-7.6678,-7.6524,-7.6666,-7.6666,-7.6666,-7.6666,-7.6666,0,-7.5089,-7.5174,-7.5291,-7.5443,-7.5543,-7.5572,-7.5695,-7.5776,-7.5898,-7.601,-7.612,-7.6274,-7.6403,-7.6516,-7.665,-7.6715,-7.6736,-7.6747,-7.6741,-7.6758,-7.6674,-7.6641,-7.6729,-7.6729,-7.6729,-7.6728,-7.6728,-7.6728,-7.5155,-7.5294,-7.5353,-7.554,-7.5624,-7.5761,-7.5829,-7.5923,-7.6012,-7.6182,-7.6291,-7.6364,-7.6476,-7.6619,-7.6738,-7.6768,-7.6813,-7.682,-7.6853,-7.6772,-7.6764,-7.6757,-7.6726,-7.683,-7.683,-7.6929,-7.6929,-7.693]},{"header":{"parameterUnit":"m.s-1","parameterCategory":1,"la1":30.2991,"la2":30.254,"lo1":-89.0895,"lo2":-89.0444,"dy":0.0017,"dx":0.0017,"nx":28,"ny":28,"refTime":"2025-03-28T09:00:00:Z","depth":0,"parameterNumber":3,"parameterNumberName":"V-component_of_WINDS"},"data":[0,0,0,0,0,0,0,0,0,0,0,0,0,0,0,0,0,0,0,0,0,0,0,0,0,0,0,0,0,0,0,0,0,0,0,0,0,0,0,0,0,0,0,0,0,0,0,0,0,0,0,0,0,0,0,0,0,0,6.3648,6.3649,0,6.3735,6.3736,6.3737,6.371,6.3708,6.3706,6.3705,6.3786,6.379,6.3794,0,0,0,0,0,0,0,0,0,0,0,0,0,6.3452,6.3456,6.3648,6.3649,6.365,6.3735,6.3736,6.3737,6.371,6.3708,6.3706,6.3704,6.3785,6.3789,6.3794,0,0,0,0,0,0,0,0,0,0,0,0,0,6.3538,6.3457,6.3647,6.3647,6.3648,6.3734,6.3736,6.3737,6.3711,6.3708,6.3705,6.3703,6.3783,6.3789,6.3795,6.3885,0,0,6.3812,6.3815,0,0,0,0,0,0,0,0,6.3533,6.3545,6.3646,6.3647,6.3648,6.3709,6.3697,6.3786,6.3712,6.3687,6.3705,6.3702,6.3762,6.3769,6.3791,6.3888,6.3892,6.3813,6.3816,6.3819,6.382,0,0,0,0,0,0,0,6.3527,6.3541,6.3682,6.3647,6.3649,6.364,6.365,6.3714,6.3738,6.3689,6.3687,6.3698,6.3762,6.3786,6.3793,6.3893,6.3813,6.3818,6.3821,6.3824,6.407,6.4073,0,0,0,0,0,0,6.3521,6.3536,6.3679,6.3684,6.3583,6.3646,6.3656,6.3692,6.3738,6.3742,6.37,6.3696,6.3777,6.3786,6.3796,6.3906,6.3819,6.3824,6.3827,6.4067,6.407,6.4074,0,0,0,0,0,0,6.3517,6.3534,6.3676,6.361,6.3627,6.3652,6.3693,6.3695,6.3719,6.3747,6.375,6.3721,6.3776,6.3788,6.3864,6.3908,6.3827,6.3832,6.4063,6.4068,6.4072,6.4125,0,0,0,0,0,0,6.3512,6.3533,6.3569,6.3611,6.3631,6.3744,6.3695,6.3699,6.373,6.3726,6.3766,6.377,6.3774,6.3855,6.3869,6.3914,6.3837,6.4059,6.4065,6.4071,6.4119,6.4131,6.414,0,0,0,0,0,6.3505,6.3578,6.3571,6.3588,6.3677,6.3746,6.3758,6.3763,6.3734,6.3769,6.3787,6.3769,6.3901,6.3863,6.3879,6.3926,6.4056,6.4063,6.407,6.4114,6.4128,6.414,0,0,0,0,0,0,6.3536,6.3583,6.3576,6.3665,6.3703,6.3742,6.3786,6.3777,6.3821,6.3815,6.3818,6.3827,6.3906,6.3923,6.388,6.4017,6.3974,6.3984,6.4002,6.4016,6.4026,6.402,6.3841,0,0,0,0,0,6.3554,6.3609,6.3646,6.3722,6.3741,6.3761,6.3791,6.3793,6.383,6.3845,6.3868,6.3903,6.3953,6.3985,6.4032,6.4122,6.413,6.4162,6.4173,6.4181,6.419,6.424,6.4255,6.4096,6.4096,6.4096,0,0,6.359,6.3623,6.3657,6.3729,6.3758,6.3814,6.3774,6.3834,6.3875,6.3853,6.3928,6.3946,6.3985,6.4069,6.4107,6.4086,6.4236,6.419,6.4197,6.4201,6.4249,6.4264,6.4277,6.4101,6.41,6.41,0,0,6.3686,6.3716,6.3783,6.3814,6.386,6.3873,6.3889,6.3931,6.3944,6.4019,6.4005,6.4052,6.4137,6.4166,6.4192,6.4302,6.4287,6.4316,6.4372,6.4421,6.4433,6.4444,6.4484,6.4498,6.4325,6.4325,6.4325,0,6.3724,6.381,6.3818,6.3881,6.3913,6.39,6.3967,6.3995,6.4053,6.4075,6.4051,6.416,6.4185,6.4276,6.4303,6.4324,6.4342,6.4312,6.4431,6.4442,6.4453,6.4491,6.4506,6.4329,6.4328,6.4328,6.4328,0,6.3856,6.3916,6.3964,6.4024,6.4062,6.4126,6.4142,6.4178,6.4177,6.4192,6.4269,6.43,6.4354,6.4375,6.4373,6.4467,6.4453,6.443,6.4388,6.4471,6.4507,6.4521,6.4334,6.4332,6.4331,6.4331,0,0,6.3972,6.4038,6.4056,6.4084,6.4135,6.418,6.4244,6.43,6.4331,6.4371,6.4425,6.4498,6.4479,6.4508,6.4509,6.4552,6.4638,6.4525,6.4525,6.4545,6.4744,6.4762,6.4778,6.4629,6.4632,6.4634,6.4741,0,6.4072,6.4188,6.4198,6.4301,6.4356,6.4346,6.4401,6.4437,6.4454,6.4501,6.4518,6.4571,6.454,6.4559,6.4601,6.4619,6.4678,6.4611,6.4677,6.468,6.4669,6.4797,6.4814,6.4914,6.4755,6.4758,6.4759,0,6.4204,6.4253,6.4363,6.4409,6.4432,6.4482,6.4535,6.4581,6.4622,6.4631,6.4666,6.4661,6.4725,6.4681,6.4769,6.4724,6.4751,6.4765,6.4768,6.4775,6.4725,6.4807,6.4946,6.4961,6.4781,6.4779,6.4778,0,6.4279,6.4372,6.445,6.4474,6.4529,6.4565,6.4588,6.4627,6.4661,6.4706,6.4728,6.4779,6.4807,6.4846,6.4855,6.4822,6.4944,6.4899,6.4952,6.4952,6.4978,6.4976,6.5124,6.4995,6.4995,6.4994,6.4994,0,6.4391,6.4458,6.4485,6.4533,6.4609,6.4619,6.4693,6.4714,6.4749,6.48,6.4792,6.4839,6.4849,6.4898,6.4905,6.4978,6.499,6.4998,6.4999,6.4999,6.4998,6.5017,6.5011,6.4998,6.4998,6.4997,6.4996,0,6.4487,6.4508,6.4593,6.4639,6.4652,6.4706,6.4744,6.479,6.4806,6.4871,6.4886,6.4911,6.4968,6.4982,6.5049,6.5054,6.514,6.5134,6.5127,6.5127,6.5179,6.5174,6.5344,6.5367,6.5223,6.5225,6.5226,0,6.4557,6.4609,6.4663,6.4698,6.4725,6.4781,6.4817,6.4828,6.4865,6.4917,6.4956,6.5014,6.506,6.5152,6.5175,6.5227,6.5222,6.5278,6.5229,6.5229,6.5224,6.5221,6.5227,6.5287,6.5289,6.529,6.5291,0,6.4679,6.4688,6.4741,6.4799,6.4842,6.4887,6.4929,6.4958,6.4976,6.5017,6.5078,6.5114,6.5185,6.5242,6.5295,6.5317,6.5307,6.5307,6.5322,6.5322,6.5317,6.5321,6.5153,6.5302,6.5301,6.53,6.53,6.5299,6.4765,6.4812,6.4858,6.4918,6.4952,6.4993,6.5039,6.5063,6.5114,6.5175,6.5178,6.5244,6.5284,6.5355,6.538,6.5431,6.5413,6.5435,6.544,6.5446,6.5451,6.5309,6.544,6.544,6.544,6.5439,6.5439,0,6.4888,6.4918,6.4973,6.5035,6.5082,6.5072,6.5119,6.5158,6.5218,6.5258,6.5305,6.5375,6.5431,6.5459,6.5514,6.5549,6.5546,6.5563,6.5561,6.5566,6.5463,6.5445,6.5565,6.5565,6.5565,6.5565,6.5565,6.5565,6.4957,6.5037,6.5051,6.5148,6.5176,6.5244,6.5272,6.5309,6.5342,6.5422,6.5469,6.5488,6.5523,6.5581,6.5631,6.5638,6.5659,6.5678,6.5683,6.5586,6.5573,6.5561,6.5544,6.5683,6.5683,6.5782,6.5783,6.5783]}]]